Location: Huesca
(42.1318°N, 0.4078°W)
Time: 11:59:10
(UTC+01:00)

O/OREOS (USA 219) - Pass Details

Date: 22 November 2024
Orbit: 590 x 609 km, 72.0° (Epoch: 06 December)

Event Time Altitude Azimuth Distance (km) Brightness Sun altitude
Rises 18:03:51 0° 226° (SW) 2,817 ? -5.7°
Reaches altitude 10° 18:06:16 10° 236° (WSW) 1,918 ? -6.2°
Maximum altitude 18:10:05 31° 300° (WNW) 1,041 ? -6.8°
Drops below altitude 10° 18:13:57 10° 4° (N) 1,926 ? -7.5°
Sets 18:16:23 0° 14° (NNE) 2,831 ? -7.9°
